Location: Azat
(46.0765°N, 1.7600°E)
Time: 03:13:13
(UTC+00:00)

STARLINK-1244 - Pass Details

Date: 09 April 2020
Orbit: 549 x 551 km, 53.0° (Epoch: 02 June)

Event Time Altitude Azimuth Distance (km) Brightness Sun altitude
Rises 19:58:36 0° 300° (WNW) 2,776 9.2 -14.7°
Reaches altitude 10° 20:00:54 10° 304° (NW) 1,878 7.7 -15.1°
Maximum altitude 20:05:07 58° 24° (NNE) 669 4.0 -15.7°
Enters shadow 20:07:13 28° 94° (E) 1,099 4.6 -16.0°
